owner,sensor,date,latitude,longitude,vertical_datum,mass_concentration_of_oxygen_in_sea_water,qcFlag 
DISL,ioos:station:DISL:BSCA:1,2017-03-01T00:00:00Z,30.3288,-87.8293,1.878,7.65,1111122 
DISL,ioos:station:DISL:BSCA:1,2017-03-01T00:30:00Z,30.3288,-87.8293,1.905,7.59,1111122 
DISL,ioos:station:DISL:BSCA:1,2017-03-01T01:00:00Z,30.3288,-87.8293,1.908,7.11,1111122 
DISL,ioos:station:DISL:BSCA:1,2017-03-01T01:30:00Z,30.3288,-87.8293,1.923,6.58,1111122 
DISL,ioos:station:DISL:BSCA:1,2017-03-01T02:00:00Z,30.3288,-87.8293,1.938,7.01,1111122 
DISL,ioos:station:DISL:BSCA:1,2017-03-01T02:30:00Z,30.3288,-87.8293,1.945,6.99,1111122 
DISL,ioos:station:DISL:BSCA:1,2017-03-01T03:00:00Z,30.3288,-87.8293,1.981,6.76,1111122 
DISL,ioos:station:DISL:BSCA:1,2017-03-01T03:30:00Z,30.3288,-87.8293,2.004,7.02,1111122 
DISL,ioos:station:DISL:BSCA:1,2017-03-01T04:00:00Z,30.3288,-87.8293,2.029,6.92,1111122 
DISL,ioos:station:DISL:BSCA:1,2017-03-01T04:30:00Z,30.3288,-87.8293,2.052,6.92,1111122 
DISL,ioos:station:DISL:BSCA:1,2017-03-01T05:00:00Z,30.3288,-87.8293,2.073,7.08,1111122 
DISL,ioos:station:DISL:BSCA:1,2017-03-01T05:30:00Z,30.3288,-87.8293,2.091,6.33,1111122 
DISL,ioos:station:DISL:BSCA:1,2017-03-01T06:00:00Z,30.3288,-87.8293,2.102,5.95,1111122 
DISL,ioos:station:DISL:BSCA:1,2017-03-01T06:30:00Z,30.3288,-87.8293,2.116,6.54,1111122 
DISL,ioos:station:DISL:BSCA:1,2017-03-01T07:00:00Z,30.3288,-87.8293,2.133,6.08,1111122 
DISL,ioos:station:DISL:BSCA:1,2017-03-01T07:30:00Z,30.3288,-87.8293,2.137,5.93,1111122 
DISL,ioos:station:DISL:BSCA:1,2017-03-01T08:00:00Z,30.3288,-87.8293,2.138,6.04,1111122 
DISL,ioos:station:DISL:BSCA:1,2017-03-01T08:30:00Z,30.3288,-87.8293,2.134,5.85,1111122 
DISL,ioos:station:DISL:BSCA:1,2017-03-01T09:00:00Z,30.3288,-87.8293,2.138,5.44,1111122 
DISL,ioos:station:DISL:BSCA:1,2017-03-01T09:30:00Z,30.3288,-87.8293,2.135,5.31,1111122 
DISL,ioos:station:DISL:BSCA:1,2017-03-01T10:00:00Z,30.3288,-87.8293,2.13,5.46,1111122 
DISL,ioos:station:DISL:BSCA:1,2017-03-01T10:30:00Z,30.3288,-87.8293,2.111,5.59,1111122 
DISL,ioos:station:DISL:BSCA:1,2017-03-01T11:00:00Z,30.3288,-87.8293,2.096,5.67,1111122 
DISL,ioos:station:DISL:BSCA:1,2017-03-01T11:30:00Z,30.3288,-87.8293,2.084,5.71,1111122 
DISL,ioos:station:DISL:BSCA:1,2017-03-01T12:00:00Z,30.3288,-87.8293,2.082,5.71,1111122 
DISL,ioos:station:DISL:BSCA:1,2017-03-01T12:30:00Z,30.3288,-87.8293,2.068,5.71,1111122 
DISL,ioos:station:DISL:BSCA:1,2017-03-01T13:00:00Z,30.3288,-87.8293,2.074,6.53,1111122 
DISL,ioos:station:DISL:BSCA:1,2017-03-01T13:30:00Z,30.3288,-87.8293,2.071,6.96,1111122 
DISL,ioos:station:DISL:BSCA:1,2017-03-01T14:00:00Z,30.3288,-87.8293,2.067,7.04,1111122 
DISL,ioos:station:DISL:BSCA:1,2017-03-01T14:30:00Z,30.3288,-87.8293,2.065,7.22,1111122 
DISL,ioos:station:DISL:BSCA:1,2017-03-01T15:00:00Z,30.3288,-87.8293,2.04,7.2,1111122 
DISL,ioos:station:DISL:BSCA:1,2017-03-01T15:30:00Z,30.3288,-87.8293,2.037,7.04,1111122 
DISL,ioos:station:DISL:BSCA:1,2017-03-01T16:00:00Z,30.3288,-87.8293,1.995,6.83,1111122 
DISL,ioos:station:DISL:BSCA:1,2017-03-01T16:30:00Z,30.3288,-87.8293,1.984,7.0,1111122 
DISL,ioos:station:DISL:BSCA:1,2017-03-01T17:00:00Z,30.3288,-87.8293,1.986,7.03,1111122 
DISL,ioos:station:DISL:BSCA:1,2017-03-01T17:30:00Z,30.3288,-87.8293,1.961,6.98,1111122 
DISL,ioos:station:DISL:BSCA:1,2017-03-01T18:00:00Z,30.3288,-87.8293,1.994,6.53,1111122 
DISL,ioos:station:DISL:BSCA:1,2017-03-01T18:30:00Z,30.3288,-87.8293,2.007,6.61,1111122 
DISL,ioos:station:DISL:BSCA:1,2017-03-01T19:00:00Z,30.3288,-87.8293,2.006,6.53,1111122 
DISL,ioos:station:DISL:BSCA:1,2017-03-01T19:30:00Z,30.3288,-87.8293,2.01,6.53,1111122 
DISL,ioos:station:DISL:BSCA:1,2017-03-01T20:00:00Z,30.3288,-87.8293,1.995,6.38,1111122 
DISL,ioos:station:DISL:BSCA:1,2017-03-01T20:30:00Z,30.3288,-87.8293,1.991,5.74,1111122 
DISL,ioos:station:DISL:BSCA:1,2017-03-01T21:00:00Z,30.3288,-87.8293,1.988,6.04,1111122 
DISL,ioos:station:DISL:BSCA:1,2017-03-01T21:30:00Z,30.3288,-87.8293,2.006,6.69,1111122 
DISL,ioos:station:DISL:BSCA:1,2017-03-01T22:00:00Z,30.3288,-87.8293,1.997,7.08,1111122 
DISL,ioos:station:DISL:BSCA:1,2017-03-01T22:30:00Z,30.3288,-87.8293,1.989,7.36,1111122 
DISL,ioos:station:DISL:BSCA:1,2017-03-01T23:00:00Z,30.3288,-87.8293,1.988,7.69,1111122 
DISL,ioos:station:DISL:BSCA:1,2017-03-01T23:30:00Z,30.3288,-87.8293,1.961,7.77,1111122 
DISL,ioos:station:DISL:BSCA:1,2017-03-02T00:00:00Z,30.3288,-87.8293,1.953,7.82,1111122 
DISL,ioos:station:DISL:BSCA:1,2017-03-02T00:30:00Z,30.3288,-87.8293,1.942,7.82,1111122 
DISL,ioos:station:DISL:BSCA:1,2017-03-02T01:00:00Z,30.3288,-87.8293,1.941,7.96,1111122 
DISL,ioos:station:DISL:BSCA:1,2017-03-02T01:30:00Z,30.3288,-87.8293,1.949,7.84,1111122 
DISL,ioos:station:DISL:BSCA:1,2017-03-02T02:00:00Z,30.3288,-87.8293,1.947,7.87,1111122 
DISL,ioos:station:DISL:BSCA:1,2017-03-02T02:30:00Z,30.3288,-87.8293,1.95,7.95,1111122 
DISL,ioos:station:DISL:BSCA:1,2017-03-02T03:00:00Z,30.3288,-87.8293,1.951,8.0,1111122 
DISL,ioos:station:DISL:BSCA:1,2017-03-02T03:30:00Z,30.3288,-87.8293,1.976,7.79,1111122 
DISL,ioos:station:DISL:BSCA:1,2017-03-02T04:00:00Z,30.3288,-87.8293,1.993,7.74,1111122 
DISL,ioos:station:DISL:BSCA:1,2017-03-02T04:30:00Z,30.3288,-87.8293,1.994,7.56,1111122 
DISL,ioos:station:DISL:BSCA:1,2017-03-02T05:00:00Z,30.3288,-87.8293,2.101,7.07,1111122 
DISL,ioos:station:DISL:BSCA:1,2017-03-02T05:30:00Z,30.3288,-87.8293,2.054,7.24,1111122 
DISL,ioos:station:DISL:BSCA:1,2017-03-02T06:00:00Z,30.3288,-87.8293,2.011,7.39,1111122 
DISL,ioos:station:DISL:BSCA:1,2017-03-02T06:30:00Z,30.3288,-87.8293,1.933,7.99,1111122 
DISL,ioos:station:DISL:BSCA:1,2017-03-02T07:00:00Z,30.3288,-87.8293,1.853,8.07,1111122 
DISL,ioos:station:DISL:BSCA:1,2017-03-02T07:30:00Z,30.3288,-87.8293,1.811,8.0,1111122 
DISL,ioos:station:DISL:BSCA:1,2017-03-02T08:00:00Z,30.3288,-87.8293,1.842,7.87,1111122 
DISL,ioos:station:DISL:BSCA:1,2017-03-02T08:30:00Z,30.3288,-87.8293,1.86,7.7,1111122 
DISL,ioos:station:DISL:BSCA:1,2017-03-02T09:00:00Z,30.3288,-87.8293,1.83,7.61,1111122 
DISL,ioos:station:DISL:BSCA:1,2017-03-02T09:30:00Z,30.3288,-87.8293,1.87,7.7,1111122 
DISL,ioos:station:DISL:BSCA:1,2017-03-02T10:00:00Z,30.3288,-87.8293,1.836,7.89,1111122 
DISL,ioos:station:DISL:BSCA:1,2017-03-02T10:30:00Z,30.3288,-87.8293,1.838,7.69,1111122 
DISL,ioos:station:DISL:BSCA:1,2017-03-02T11:00:00Z,30.3288,-87.8293,1.757,7.71,1111122 
DISL,ioos:station:DISL:BSCA:1,2017-03-02T11:30:00Z,30.3288,-87.8293,1.729,7.58,1111122 
DISL,ioos:station:DISL:BSCA:1,2017-03-02T12:00:00Z,30.3288,-87.8293,1.709,7.57,1111122 
DISL,ioos:station:DISL:BSCA:1,2017-03-02T12:30:00Z,30.3288,-87.8293,1.694,7.5,1111122 
DISL,ioos:station:DISL:BSCA:1,2017-03-02T13:00:00Z,30.3288,-87.8293,1.677,7.48,1111122 
DISL,ioos:station:DISL:BSCA:1,2017-03-02T13:30:00Z,30.3288,-87.8293,1.696,7.56,1111122 
DISL,ioos:station:DISL:BSCA:1,2017-03-02T14:00:00Z,30.3288,-87.8293,1.698,7.52,1111122 
DISL,ioos:station:DISL:BSCA:1,2017-03-02T14:30:00Z,30.3288,-87.8293,1.69,7.64,1111122 
DISL,ioos:station:DISL:BSCA:1,2017-03-02T15:00:00Z,30.3288,-87.8293,1.709,7.6,1111122 
DISL,ioos:station:DISL:BSCA:1,2017-03-02T15:30:00Z,30.3288,-87.8293,1.724,7.69,1111122 
DISL,ioos:station:DISL:BSCA:1,2017-03-02T16:00:00Z,30.3288,-87.8293,1.71,7.73,1111122 
DISL,ioos:station:DISL:BSCA:1,2017-03-02T16:30:00Z,30.3288,-87.8293,1.772,7.73,1111122 
DISL,ioos:station:DISL:BSCA:1,2017-03-02T17:00:00Z,30.3288,-87.8293,1.768,7.72,1111122 
DISL,ioos:station:DISL:BSCA:1,2017-03-02T17:30:00Z,30.3288,-87.8293,1.807,7.79,1111122 
DISL,ioos:station:DISL:BSCA:1,2017-03-02T18:00:00Z,30.3288,-87.8293,1.814,7.87,1111122 
DISL,ioos:station:DISL:BSCA:1,2017-03-02T18:30:00Z,30.3288,-87.8293,1.838,7.98,1111122 
DISL,ioos:station:DISL:BSCA:1,2017-03-02T19:00:00Z,30.3288,-87.8293,1.867,7.72,1111122 
DISL,ioos:station:DISL:BSCA:1,2017-03-02T19:30:00Z,30.3288,-87.8293,1.891,7.84,1111122 
DISL,ioos:station:DISL:BSCA:1,2017-03-02T20:00:00Z,30.3288,-87.8293,1.905,8.02,1111122 
DISL,ioos:station:DISL:BSCA:1,2017-03-02T20:30:00Z,30.3288,-87.8293,1.902,7.98,1111122 
DISL,ioos:station:DISL:BSCA:1,2017-03-02T21:00:00Z,30.3288,-87.8293,1.923,8.04,1111122 
DISL,ioos:station:DISL:BSCA:1,2017-03-02T21:30:00Z,30.3288,-87.8293,1.922,7.99,1111122 
DISL,ioos:station:DISL:BSCA:1,2017-03-02T22:00:00Z,30.3288,-87.8293,1.934,7.96,1111122 
DISL,ioos:station:DISL:BSCA:1,2017-03-02T22:30:00Z,30.3288,-87.8293,1.897,8.0,1111122 
DISL,ioos:station:DISL:BSCA:1,2017-03-02T23:00:00Z,30.3288,-87.8293,1.888,8.02,1111122 
DISL,ioos:station:DISL:BSCA:1,2017-03-02T23:30:00Z,30.3288,-87.8293,1.843,7.92,1111122 
DISL,ioos:station:DISL:BSCA:1,2017-03-03T00:00:00Z,30.3288,-87.8293,1.818,7.4,1111122 
DISL,ioos:station:DISL:BSCA:1,2017-03-03T00:30:00Z,30.3288,-87.8293,1.807,7.23,1111122 
DISL,ioos:station:DISL:BSCA:1,2017-03-03T01:00:00Z,30.3288,-87.8293,1.804,7.99,1111122 
DISL,ioos:station:DISL:BSCA:1,2017-03-03T01:30:00Z,30.3288,-87.8293,1.774,7.75,1111122 
DISL,ioos:station:DISL:BSCA:1,2017-03-03T02:00:00Z,30.3288,-87.8293,1.726,7.33,1111122 
DISL,ioos:station:DISL:BSCA:1,2017-03-03T02:30:00Z,30.3288,-87.8293,1.692,7.53,1111122 
DISL,ioos:station:DISL:BSCA:1,2017-03-03T03:00:00Z,30.3288,-87.8293,1.678,7.11,1111122 
DISL,ioos:station:DISL:BSCA:1,2017-03-03T03:30:00Z,30.3288,-87.8293,1.661,7.53,1111122 
DISL,ioos:station:DISL:BSCA:1,2017-03-03T04:00:00Z,30.3288,-87.8293,1.684,7.46,1111122 
DISL,ioos:station:DISL:BSCA:1,2017-03-03T04:30:00Z,30.3288,-87.8293,1.676,7.47,1111122 
DISL,ioos:station:DISL:BSCA:1,2017-03-03T05:00:00Z,30.3288,-87.8293,1.666,8.05,1111122 
DISL,ioos:station:DISL:BSCA:1,2017-03-03T05:30:00Z,30.3288,-87.8293,1.657,8.15,1111122 
DISL,ioos:station:DISL:BSCA:1,2017-03-03T06:00:00Z,30.3288,-87.8293,1.635,8.03,1111122 
DISL,ioos:station:DISL:BSCA:1,2017-03-03T06:30:00Z,30.3288,-87.8293,1.611,7.94,1111122 
DISL,ioos:station:DISL:BSCA:1,2017-03-03T07:00:00Z,30.3288,-87.8293,1.602,7.77,1111122 
DISL,ioos:station:DISL:BSCA:1,2017-03-03T07:30:00Z,30.3288,-87.8293,1.583,7.64,1111122 
DISL,ioos:station:DISL:BSCA:1,2017-03-03T08:00:00Z,30.3288,-87.8293,1.587,7.5,1111122 
DISL,ioos:station:DISL:BSCA:1,2017-03-03T08:30:00Z,30.3288,-87.8293,1.591,7.5,1111122 
DISL,ioos:station:DISL:BSCA:1,2017-03-03T09:00:00Z,30.3288,-87.8293,1.604,7.47,1111122 
DISL,ioos:station:DISL:BSCA:1,2017-03-03T09:30:00Z,30.3288,-87.8293,1.607,7.64,1111122 
DISL,ioos:station:DISL:BSCA:1,2017-03-03T10:00:00Z,30.3288,-87.8293,1.646,7.22,1111122 
DISL,ioos:station:DISL:BSCA:1,2017-03-03T10:30:00Z,30.3288,-87.8293,1.647,7.1,1111122 
DISL,ioos:station:DISL:BSCA:1,2017-03-03T11:00:00Z,30.3288,-87.8293,1.64,7.06,1111122 
DISL,ioos:station:DISL:BSCA:1,2017-03-03T11:30:00Z,30.3288,-87.8293,1.619,6.98,1111122 
DISL,ioos:station:DISL:BSCA:1,2017-03-03T12:00:00Z,30.3288,-87.8293,1.61,6.94,1111122 
DISL,ioos:station:DISL:BSCA:1,2017-03-03T12:30:00Z,30.3288,-87.8293,1.597,6.83,1111122 
DISL,ioos:station:DISL:BSCA:1,2017-03-03T13:00:00Z,30.3288,-87.8293,1.595,6.85,1111122 
DISL,ioos:station:DISL:BSCA:1,2017-03-03T13:30:00Z,30.3288,-87.8293,1.597,6.71,1111122 
DISL,ioos:station:DISL:BSCA:1,2017-03-03T14:00:00Z,30.3288,-87.8293,1.61,6.66,1111122 
DISL,ioos:station:DISL:BSCA:1,2017-03-03T14:30:00Z,30.3288,-87.8293,1.634,6.7,1111122 
DISL,ioos:station:DISL:BSCA:1,2017-03-03T15:00:00Z,30.3288,-87.8293,1.663,6.63,1111122 
DISL,ioos:station:DISL:BSCA:1,2017-03-03T15:30:00Z,30.3288,-87.8293,1.702,6.64,1111122 
DISL,ioos:station:DISL:BSCA:1,2017-03-03T16:00:00Z,30.3288,-87.8293,1.743,6.79,1111122 
DISL,ioos:station:DISL:BSCA:1,2017-03-03T16:30:00Z,30.3288,-87.8293,1.773,6.99,1111122 
DISL,ioos:station:DISL:BSCA:1,2017-03-03T17:00:00Z,30.3288,-87.8293,1.807,7.29,1111122 
DISL,ioos:station:DISL:BSCA:1,2017-03-03T17:30:00Z,30.3288,-87.8293,1.837,7.56,1111122 
DISL,ioos:station:DISL:BSCA:1,2017-03-03T18:00:00Z,30.3288,-87.8293,1.859,7.99,1111122 
DISL,ioos:station:DISL:BSCA:1,2017-03-03T18:30:00Z,30.3288,-87.8293,1.895,8.18,1111122 
DISL,ioos:station:DISL:BSCA:1,2017-03-03T19:00:00Z,30.3288,-87.8293,1.919,8.4,1111122 
DISL,ioos:station:DISL:BSCA:1,2017-03-03T19:30:00Z,30.3288,-87.8293,1.941,8.46,1111122 
DISL,ioos:station:DISL:BSCA:1,2017-03-03T20:00:00Z,30.3288,-87.8293,1.95,8.23,1111122 
DISL,ioos:station:DISL:BSCA:1,2017-03-03T20:30:00Z,30.3288,-87.8293,1.943,8.28,1111122 
DISL,ioos:station:DISL:BSCA:1,2017-03-03T21:00:00Z,30.3288,-87.8293,1.93,8.17,1111122 
DISL,ioos:station:DISL:BSCA:1,2017-03-03T21:30:00Z,30.3288,-87.8293,1.914,8.34,1111122 
DISL,ioos:station:DISL:BSCA:1,2017-03-03T22:00:00Z,30.3288,-87.8293,1.895,8.0,1111122 
DISL,ioos:station:DISL:BSCA:1,2017-03-03T22:30:00Z,30.3288,-87.8293,1.89,8.42,1111122 
DISL,ioos:station:DISL:BSCA:1,2017-03-03T23:00:00Z,30.3288,-87.8293,1.884,8.53,1111122 
DISL,ioos:station:DISL:BSCA:1,2017-03-03T23:30:00Z,30.3288,-87.8293,1.874,8.35,1111122 
DISL,ioos:station:DISL:BSCA:1,2017-03-04T00:00:00Z,30.3288,-87.8293,1.854,7.99,1111122 
DISL,ioos:station:DISL:BSCA:1,2017-03-04T00:30:00Z,30.3288,-87.8293,1.832,7.92,1111122 
DISL,ioos:station:DISL:BSCA:1,2017-03-04T01:00:00Z,30.3288,-87.8293,1.807,7.76,1111122 
DISL,ioos:station:DISL:BSCA:1,2017-03-04T01:30:00Z,30.3288,-87.8293,1.772,7.06,1111122 
DISL,ioos:station:DISL:BSCA:1,2017-03-04T02:00:00Z,30.3288,-87.8293,1.735,7.46,1111122 
DISL,ioos:station:DISL:BSCA:1,2017-03-04T02:30:00Z,30.3288,-87.8293,1.705,7.65,1111122 
DISL,ioos:station:DISL:BSCA:1,2017-03-04T03:00:00Z,30.3288,-87.8293,1.67,6.62,1111122 
DISL,ioos:station:DISL:BSCA:1,2017-03-04T03:30:00Z,30.3288,-87.8293,1.645,6.92,1111122 
DISL,ioos:station:DISL:BSCA:1,2017-03-04T04:00:00Z,30.3288,-87.8293,1.625,6.96,1111122 
DISL,ioos:station:DISL:BSCA:1,2017-03-04T04:30:00Z,30.3288,-87.8293,1.608,7.47,1111122 
DISL,ioos:station:DISL:BSCA:1,2017-03-04T05:00:00Z,30.3288,-87.8293,1.595,7.54,1111122 
DISL,ioos:station:DISL:BSCA:1,2017-03-04T05:30:00Z,30.3288,-87.8293,1.59,5.93,1111122 
DISL,ioos:station:DISL:BSCA:1,2017-03-04T06:00:00Z,30.3288,-87.8293,1.575,5.31,1111122 
DISL,ioos:station:DISL:BSCA:1,2017-03-04T06:30:00Z,30.3288,-87.8293,1.567,5.25,1111122 
DISL,ioos:station:DISL:BSCA:1,2017-03-04T07:00:00Z,30.3288,-87.8293,1.558,4.99,1111122 
DISL,ioos:station:DISL:BSCA:1,2017-03-04T07:30:00Z,30.3288,-87.8293,1.546,4.9,1111122 
DISL,ioos:station:DISL:BSCA:1,2017-03-04T08:00:00Z,30.3288,-87.8293,1.541,4.19,1111122 
DISL,ioos:station:DISL:BSCA:1,2017-03-04T08:30:00Z,30.3288,-87.8293,1.538,6.85,1111122 
DISL,ioos:station:DISL:BSCA:1,2017-03-04T09:00:00Z,30.3288,-87.8293,1.542,7.03,1111122 
DISL,ioos:station:DISL:BSCA:1,2017-03-04T09:30:00Z,30.3288,-87.8293,1.542,7.43,1111122 
DISL,ioos:station:DISL:BSCA:1,2017-03-04T10:00:00Z,30.3288,-87.8293,1.543,7.34,1111122 
DISL,ioos:station:DISL:BSCA:1,2017-03-04T10:30:00Z,30.3288,-87.8293,1.543,7.8,1111122 
DISL,ioos:station:DISL:BSCA:1,2017-03-04T11:00:00Z,30.3288,-87.8293,1.556,7.6,1111122 
DISL,ioos:station:DISL:BSCA:1,2017-03-04T11:30:00Z,30.3288,-87.8293,1.566,7.7,1111122 
DISL,ioos:station:DISL:BSCA:1,2017-03-04T12:00:00Z,30.3288,-87.8293,1.585,7.71,1111122 
DISL,ioos:station:DISL:BSCA:1,2017-03-04T12:30:00Z,30.3288,-87.8293,1.606,7.73,1111122 
DISL,ioos:station:DISL:BSCA:1,2017-03-04T13:00:00Z,30.3288,-87.8293,1.611,7.46,1111122 
DISL,ioos:station:DISL:BSCA:1,2017-03-04T13:30:00Z,30.3288,-87.8293,1.628,7.55,1111122 
DISL,ioos:station:DISL:BSCA:1,2017-03-04T14:00:00Z,30.3288,-87.8293,1.63,7.74,1111122 
DISL,ioos:station:DISL:BSCA:1,2017-03-04T14:30:00Z,30.3288,-87.8293,1.658,7.7,1111122 
DISL,ioos:station:DISL:BSCA:1,2017-03-04T15:00:00Z,30.3288,-87.8293,1.68,7.86,1111122 
DISL,ioos:station:DISL:BSCA:1,2017-03-04T15:30:00Z,30.3288,-87.8293,1.715,7.87,1111122 
DISL,ioos:station:DISL:BSCA:1,2017-03-04T16:00:00Z,30.3288,-87.8293,1.739,7.92,1111122 
DISL,ioos:station:DISL:BSCA:1,2017-03-04T16:30:00Z,30.3288,-87.8293,1.76,7.89,1111122 
DISL,ioos:station:DISL:BSCA:1,2017-03-04T17:00:00Z,30.3288,-87.8293,1.791,8.09,1111122 
DISL,ioos:station:DISL:BSCA:1,2017-03-04T17:30:00Z,30.3288,-87.8293,1.831,8.2,1111122 
DISL,ioos:station:DISL:BSCA:1,2017-03-04T18:00:00Z,30.3288,-87.8293,1.861,8.25,1111122 
DISL,ioos:station:DISL:BSCA:1,2017-03-04T18:30:00Z,30.3288,-87.8293,1.882,8.28,1111122 
DISL,ioos:station:DISL:BSCA:1,2017-03-04T19:00:00Z,30.3288,-87.8293,1.897,8.52,1111122 
DISL,ioos:station:DISL:BSCA:1,2017-03-04T19:30:00Z,30.3288,-87.8293,1.915,8.54,1111122 
DISL,ioos:station:DISL:BSCA:1,2017-03-04T20:00:00Z,30.3288,-87.8293,1.913,8.88,1111122 
DISL,ioos:station:DISL:BSCA:1,2017-03-04T20:30:00Z,30.3288,-87.8293,1.913,9.07,1111122 
DISL,ioos:station:DISL:BSCA:1,2017-03-04T21:00:00Z,30.3288,-87.8293,1.907,8.8,1111122 
DISL,ioos:station:DISL:BSCA:1,2017-03-04T21:30:00Z,30.3288,-87.8293,1.915,8.47,1111122 
DISL,ioos:station:DISL:BSCA:1,2017-03-04T22:00:00Z,30.3288,-87.8293,1.92,8.6,1111122 
DISL,ioos:station:DISL:BSCA:1,2017-03-04T22:30:00Z,30.3288,-87.8293,1.932,8.8,1111122 
DISL,ioos:station:DISL:BSCA:1,2017-03-04T23:00:00Z,30.3288,-87.8293,1.937,8.43,1111122 
DISL,ioos:station:DISL:BSCA:1,2017-03-04T23:30:00Z,30.3288,-87.8293,1.933,8.5,1111122 
DISL,ioos:station:DISL:BSCA:1,2017-03-05T00:00:00Z,30.3288,-87.8293,1.923,8.61,1111122 
DISL,ioos:station:DISL:BSCA:1,2017-03-05T00:30:00Z,30.3288,-87.8293,1.903,8.3,1111122 
DISL,ioos:station:DISL:BSCA:1,2017-03-05T01:00:00Z,30.3288,-87.8293,1.885,8.22,1111122 
DISL,ioos:station:DISL:BSCA:1,2017-03-05T01:30:00Z,30.3288,-87.8293,1.852,7.94,1111122 
DISL,ioos:station:DISL:BSCA:1,2017-03-05T02:00:00Z,30.3288,-87.8293,1.824,8.29,1111122 
DISL,ioos:station:DISL:BSCA:1,2017-03-05T02:30:00Z,30.3288,-87.8293,1.794,8.24,1111122 
DISL,ioos:station:DISL:BSCA:1,2017-03-05T03:00:00Z,30.3288,-87.8293,1.783,8.09,1111122 
DISL,ioos:station:DISL:BSCA:1,2017-03-05T03:30:00Z,30.3288,-87.8293,1.767,7.99,1111122 
DISL,ioos:station:DISL:BSCA:1,2017-03-05T04:00:00Z,30.3288,-87.8293,1.748,8.18,1111122 
DISL,ioos:station:DISL:BSCA:1,2017-03-05T04:30:00Z,30.3288,-87.8293,1.714,7.8,1111122 
DISL,ioos:station:DISL:BSCA:1,2017-03-05T05:00:00Z,30.3288,-87.8293,1.69,7.17,1111122 
DISL,ioos:station:DISL:BSCA:1,2017-03-05T05:30:00Z,30.3288,-87.8293,1.666,7.23,1111122 
DISL,ioos:station:DISL:BSCA:1,2017-03-05T06:00:00Z,30.3288,-87.8293,1.624,7.39,1111122 
DISL,ioos:station:DISL:BSCA:1,2017-03-05T06:30:00Z,30.3288,-87.8293,1.596,8.07,1111122 
DISL,ioos:station:DISL:BSCA:1,2017-03-05T07:00:00Z,30.3288,-87.8293,1.577,7.71,1111122 
DISL,ioos:station:DISL:BSCA:1,2017-03-05T07:30:00Z,30.3288,-87.8293,1.562,7.71,1111122 
DISL,ioos:station:DISL:BSCA:1,2017-03-05T08:00:00Z,30.3288,-87.8293,1.54,7.36,1111122 
DISL,ioos:station:DISL:BSCA:1,2017-03-05T08:30:00Z,30.3288,-87.8293,1.551,7.79,1111122 
DISL,ioos:station:DISL:BSCA:1,2017-03-05T09:00:00Z,30.3288,-87.8293,1.55,7.93,1111122 
DISL,ioos:station:DISL:BSCA:1,2017-03-05T09:30:00Z,30.3288,-87.8293,1.548,7.29,1111122 
DISL,ioos:station:DISL:BSCA:1,2017-03-05T10:00:00Z,30.3288,-87.8293,1.557,7.51,1111122 
DISL,ioos:station:DISL:BSCA:1,2017-03-05T10:30:00Z,30.3288,-87.8293,1.554,7.46,1111122 
DISL,ioos:station:DISL:BSCA:1,2017-03-05T11:00:00Z,30.3288,-87.8293,1.564,7.26,1111122 
DISL,ioos:station:DISL:BSCA:1,2017-03-05T11:30:00Z,30.3288,-87.8293,1.578,7.76,1111122 
DISL,ioos:station:DISL:BSCA:1,2017-03-05T12:00:00Z,30.3288,-87.8293,1.613,7.74,1111122 
DISL,ioos:station:DISL:BSCA:1,2017-03-05T12:30:00Z,30.3288,-87.8293,1.689,5.2,1111122 
DISL,ioos:station:DISL:BSCA:1,2017-03-05T13:00:00Z,30.3288,-87.8293,1.725,7.21,1111122 
DISL,ioos:station:DISL:BSCA:1,2017-03-05T13:30:00Z,30.3288,-87.8293,1.773,4.92,1111122 
DISL,ioos:station:DISL:BSCA:1,2017-03-05T14:00:00Z,30.3288,-87.8293,1.797,4.96,1111122 
DISL,ioos:station:DISL:BSCA:1,2017-03-05T14:30:00Z,30.3288,-87.8293,1.787,6.32,1111122 
DISL,ioos:station:DISL:BSCA:1,2017-03-05T15:00:00Z,30.3288,-87.8293,1.803,7.9,1111122 
DISL,ioos:station:DISL:BSCA:1,2017-03-05T15:30:00Z,30.3288,-87.8293,1.814,6.37,1111122 
DISL,ioos:station:DISL:BSCA:1,2017-03-05T16:00:00Z,30.3288,-87.8293,1.853,5.3,1111122 
DISL,ioos:station:DISL:BSCA:1,2017-03-05T16:30:00Z,30.3288,-87.8293,1.899,6.16,1111122 
DISL,ioos:station:DISL:BSCA:1,2017-03-05T17:00:00Z,30.3288,-87.8293,1.935,5.5,1111122 
DISL,ioos:station:DISL:BSCA:1,2017-03-05T17:30:00Z,30.3288,-87.8293,2.0,5.32,1111122 
DISL,ioos:station:DISL:BSCA:1,2017-03-05T18:00:00Z,30.3288,-87.8293,2.04,6.28,1111122 
DISL,ioos:station:DISL:BSCA:1,2017-03-05T18:30:00Z,30.3288,-87.8293,2.076,6.48,1111122 
DISL,ioos:station:DISL:BSCA:1,2017-03-05T19:00:00Z,30.3288,-87.8293,2.102,7.44,1111122 
DISL,ioos:station:DISL:BSCA:1,2017-03-05T19:30:00Z,30.3288,-87.8293,2.126,5.39,1111122 
DISL,ioos:station:DISL:BSCA:1,2017-03-05T20:00:00Z,30.3288,-87.8293,2.141,5.91,1111122 
DISL,ioos:station:DISL:BSCA:1,2017-03-05T20:30:00Z,30.3288,-87.8293,2.143,6.54,1111122 
DISL,ioos:station:DISL:BSCA:1,2017-03-05T21:00:00Z,30.3288,-87.8293,2.129,6.82,1111122 
DISL,ioos:station:DISL:BSCA:1,2017-03-05T21:30:00Z,30.3288,-87.8293,2.149,6.12,1111122 
DISL,ioos:station:DISL:BSCA:1,2017-03-05T22:00:00Z,30.3288,-87.8293,2.15,6.94,1111122 
DISL,ioos:station:DISL:BSCA:1,2017-03-05T22:30:00Z,30.3288,-87.8293,2.132,6.98,1111122 
DISL,ioos:station:DISL:BSCA:1,2017-03-05T23:00:00Z,30.3288,-87.8293,2.161,6.47,1111122 
DISL,ioos:station:DISL:BSCA:1,2017-03-05T23:30:00Z,30.3288,-87.8293,2.156,6.11,1111122 
DISL,ioos:station:DISL:BSCA:1,2017-03-06T00:00:00Z,30.3288,-87.8293,2.161,5.99,1111122 
DISL,ioos:station:DISL:BSCA:1,2017-03-06T00:30:00Z,30.3288,-87.8293,2.151,5.57,1111122 
DISL,ioos:station:DISL:BSCA:1,2017-03-06T01:00:00Z,30.3288,-87.8293,2.155,6.15,1111122 
DISL,ioos:station:DISL:BSCA:1,2017-03-06T01:30:00Z,30.3288,-87.8293,2.129,8.28,1111122 
DISL,ioos:station:DISL:BSCA:1,2017-03-06T02:00:00Z,30.3288,-87.8293,2.089,7.95,1111122 
DISL,ioos:station:DISL:BSCA:1,2017-03-06T02:30:00Z,30.3288,-87.8293,2.062,7.88,1111122 
DISL,ioos:station:DISL:BSCA:1,2017-03-06T03:00:00Z,30.3288,-87.8293,2.021,7.93,1111122 
DISL,ioos:station:DISL:BSCA:1,2017-03-06T03:30:00Z,30.3288,-87.8293,2.008,7.45,1111122 
DISL,ioos:station:DISL:BSCA:1,2017-03-06T04:00:00Z,30.3288,-87.8293,1.996,5.33,1111122 
DISL,ioos:station:DISL:BSCA:1,2017-03-06T04:30:00Z,30.3288,-87.8293,2.0,7.88,1111122 
DISL,ioos:station:DISL:BSCA:1,2017-03-06T05:00:00Z,30.3288,-87.8293,1.998,7.58,1111122 
DISL,ioos:station:DISL:BSCA:1,2017-03-06T05:30:00Z,30.3288,-87.8293,1.98,6.0,1111122 
DISL,ioos:station:DISL:BSCA:1,2017-03-06T06:00:00Z,30.3288,-87.8293,1.957,7.16,1111122 
DISL,ioos:station:DISL:BSCA:1,2017-03-06T06:30:00Z,30.3288,-87.8293,1.935,7.26,1111122 
DISL,ioos:station:DISL:BSCA:1,2017-03-06T07:00:00Z,30.3288,-87.8293,1.903,7.4,1111122 
DISL,ioos:station:DISL:BSCA:1,2017-03-06T07:30:00Z,30.3288,-87.8293,1.865,4.92,1111122 
DISL,ioos:station:DISL:BSCA:1,2017-03-06T08:00:00Z,30.3288,-87.8293,1.837,7.64,1111122 
DISL,ioos:station:DISL:BSCA:1,2017-03-06T08:30:00Z,30.3288,-87.8293,1.829,7.56,1111122 
DISL,ioos:station:DISL:BSCA:1,2017-03-06T09:00:00Z,30.3288,-87.8293,1.815,6.83,1111122 
DISL,ioos:station:DISL:BSCA:1,2017-03-06T09:30:00Z,30.3288,-87.8293,1.804,7.61,1111122 
DISL,ioos:station:DISL:BSCA:1,2017-03-06T10:00:00Z,30.3288,-87.8293,1.802,7.32,1111122 
DISL,ioos:station:DISL:BSCA:1,2017-03-06T10:30:00Z,30.3288,-87.8293,1.805,6.62,1111122 
DISL,ioos:station:DISL:BSCA:1,2017-03-06T11:00:00Z,30.3288,-87.8293,1.806,7.05,1111122 
DISL,ioos:station:DISL:BSCA:1,2017-03-06T11:30:00Z,30.3288,-87.8293,1.815,7.46,1111122 
DISL,ioos:station:DISL:BSCA:1,2017-03-06T12:00:00Z,30.3288,-87.8293,1.81,7.13,1111122 
DISL,ioos:station:DISL:BSCA:1,2017-03-06T12:30:00Z,30.3288,-87.8293,1.813,7.38,1111122 
DISL,ioos:station:DISL:BSCA:1,2017-03-06T13:00:00Z,30.3288,-87.8293,1.779,7.45,1111122 
DISL,ioos:station:DISL:BSCA:1,2017-03-06T13:30:00Z,30.3288,-87.8293,1.853,7.39,1111122 
DISL,ioos:station:DISL:BSCA:1,2017-03-06T14:00:00Z,30.3288,-87.8293,1.864,5.45,1111122 
DISL,ioos:station:DISL:BSCA:1,2017-03-06T14:30:00Z,30.3288,-87.8293,1.907,7.42,1111122 
DISL,ioos:station:DISL:BSCA:1,2017-03-06T15:00:00Z,30.3288,-87.8293,2.013,7.52,1111122 
DISL,ioos:station:DISL:BSCA:1,2017-03-06T15:30:00Z,30.3288,-87.8293,1.947,6.86,1111122 